This is the latest recevied weather packets stored in our database for station/object VA3BOO. If no packets are shown the sender has not sent any weather packets the latest 10 day(s).
| Time | Temp. | Humidity | Pressure | Rain* | Wind** | Luminosity | Snow |
|---|---|---|---|---|---|---|---|
| 1777320005 | 22.78° C | 27% | 1022.1 hPa | 0 mm | - | 573 W/m² | - |
| 1777319705 | 22.22° C | 26% | 1022 hPa | 0 mm | - | 594 W/m² | - |
| 1777319405 | 22.78° C | 25% | 1022 hPa | 0 mm | - | 604 W/m² | - |
| 1777319105 | 22.78° C | 25% | 1022.3 hPa | 0 mm | - | 615 W/m² | - |
| 1777318805 | 22.78° C | 25% | 1022.3 hPa | 0 mm | - | 600 W/m² | - |
| 1777318505 | 22.78° C | 25% | 1022.2 hPa | 0 mm | - | 646 W/m² | - |
| 1777318205 | 22.22° C | 26% | 1022.3 hPa | 0 mm | - | 634 W/m² | - |
| 1777317905 | 22.22° C | 26% | 1022.6 hPa | 0 mm | - | 667 W/m² | - |
| 1777317605 | 21.67° C | 27% | 1022.5 hPa | 0 mm | - | 669 W/m² | - |
| 1777317305 | 21.67° C | 26% | 1022.5 hPa | 0 mm | - | 691 W/m² | - |
| 1777317005 | 21.67° C | 26% | 1022.5 hPa | 0 mm | - | 696 W/m² | - |
| 1777316705 | 22.22° C | 26% | 1022.8 hPa | 0 mm | - | 698 W/m² | - |
| 1777316405 | 22.22° C | 26% | 1022.6 hPa | 0 mm | - | 712 W/m² | - |
| 1777316105 | 22.22° C | 27% | 1022.7 hPa | 0 mm | - | 729 W/m² | - |
| 1777315805 | 22.22° C | 26% | 1022.7 hPa | 0 mm | - | 740 W/m² | - |
| 1777315505 | 22.22° C | 26% | 1022.8 hPa | 0 mm | - | 745 W/m² | - |
| 1777315205 | 22.22° C | 27% | 1022.9 hPa | 0 mm | - | 752 W/m² | - |
| 1777314905 | 22.22° C | 26% | 1023 hPa | 0 mm | - | 760 W/m² | - |
| 1777314605 | 22.78° C | 26% | 1023 hPa | 0 mm | - | 766 W/m² | - |
| 1777314305 | 22.78° C | 27% | 1023.2 hPa | 0 mm | - | 772 W/m² | - |
| 1777314005 | 22.78° C | 26% | 1023.2 hPa | 0 mm | - | 778 W/m² | - |
| 1777313705 | 22.22° C | 28% | 1023.1 hPa | 0 mm | - | 782 W/m² | - |
| 1777313405 | 22.22° C | 27% | 1023.2 hPa | 0 mm | - | 438 W/m² | - |
| 1777313105 | 22.22° C | 27% | 1023.2 hPa | 0 mm | - | 75 W/m² | - |
| 1777312805 | 21.67° C | 29% | 1023.2 hPa | 0 mm | - | 64 W/m² | - |
* Rain latest hour (hover to see other rain measurements)
** Current wind speed in m/s (hover to see current wind gust speed)